[[{"header":{"parameterUnit":"m.s-1","parameterCategory":1,"la1":30.2992,"la2":30.254,"lo1":-89.0895,"lo2":-89.0443,"dy":0.0025,"dx":0.0025,"nx":19,"ny":19,"refTime":"2026-05-15T21:00:00:Z","depth":0,"parameterNumber":2,"parameterNumberName":"U-component_of_WINDS"},"data":[0,0,0,-2.4323,-2.4324,-2.4375,-2.4375,-2.4454,-2.4455,0,0,0,0,0,0,0,0,0,0,0,-2.4315,-2.4316,-2.4322,-2.4324,-2.4375,-2.4375,-2.4454,-2.4455,0,0,0,0,0,0,0,0,0,0,0,-2.4315,-2.4316,-2.4317,-2.4324,-2.4375,-2.4375,-2.4453,-2.441,0,0,0,0,0,0,0,0,0,0,-2.4358,-2.4359,-2.4315,-2.4317,-2.4325,-2.4375,-2.4375,-2.4408,-2.4413,-2.4436,0,-2.4458,0,-2.4458,-2.4461,-2.4461,0,0,0,-2.4318,-2.4355,-2.4361,-2.4317,-2.4325,-2.4375,-2.435,-2.441,-2.4416,-2.4443,-2.4459,-2.4462,-2.4459,-2.4461,-2.4462,-2.4613,-2.4614,0,0,-2.4315,-2.4328,-2.4358,-2.4365,-2.4358,-2.4349,-2.4352,-2.4414,-2.4433,-2.446,-2.4464,-2.446,-2.4462,-2.4462,-2.4612,-2.4614,0,0,0,-2.4311,-2.4327,-2.4332,-2.4363,-2.4371,-2.435,-2.4354,-2.443,-2.4431,-2.4464,-2.4461,-2.4462,-2.4463,-2.4611,-2.4613,-2.4673,0,0,0,-2.4309,-2.4324,-2.4331,-2.4339,-2.437,-2.4401,-2.4369,-2.4426,-2.4433,-2.4461,-2.4462,-2.4464,-2.461,-2.4612,-2.4669,-2.4699,0,0,0,-2.4309,-2.4324,-2.4334,-2.434,-2.4362,-2.44,-2.4404,-2.4427,-2.4432,-2.4461,-2.4465,-2.4609,-2.4612,-2.4666,-2.4693,-2.4743,0,0,0,-2.4313,-2.4387,-2.4335,-2.4417,-2.4362,-2.4437,-2.4403,-2.4458,-2.4491,-2.4463,-2.461,-2.4613,-2.4664,-2.469,-2.4739,-2.4786,-2.4807,0,0,-2.4414,-2.44,-2.4447,-2.4402,-2.4489,-2.4428,-2.4524,-2.4542,-2.4533,-2.4587,-2.4591,-2.467,-2.4693,-2.4742,-2.4921,-2.4938,0,0,0,-2.4483,-2.4517,-2.4538,-2.4569,-2.4585,-2.46,-2.4602,-2.4608,-2.4653,-2.4563,-2.4701,-2.4714,-2.4743,-2.4764,-2.4779,-2.4802,-2.4623,-2.4623,-2.4623,-2.4645,-2.4629,-2.4706,-2.4697,-2.4728,-2.4729,-2.4753,-2.4762,-2.4737,-2.477,-2.4786,-2.4897,-2.4923,-2.4933,-2.4958,-2.481,-2.481,-2.4811,-2.4811,-2.4791,-2.4837,-2.4802,-2.4865,-2.4848,-2.49,-2.4904,-2.4885,-2.4932,-2.4883,-2.4907,-2.4856,-2.4952,-2.4973,-2.4815,-2.4814,-2.4814,-2.4813,-2.4813,-2.4895,-2.4914,-2.492,-2.4964,-2.5,-2.4988,-2.5034,-2.5018,-2.5002,-2.5026,-2.5041,-2.504,-2.5036,-2.5034,-2.5035,-2.5035,-2.5035,-2.5036,-2.5036,-2.4999,-2.5005,-2.5045,-2.5068,-2.5086,-2.5108,-2.5109,-2.5127,-2.5142,-2.5126,-2.5126,-2.5098,-2.4965,-2.4931,-2.5042,-2.5041,-2.504,-2.5039,-2.5039,-2.5153,-2.5115,-2.5178,-2.5196,-2.5221,-2.5258,-2.5236,-2.5272,-2.5284,-2.5308,-2.5275,-2.5179,-2.5164,-2.5152,-2.5124,-2.5278,-2.5278,-2.5278,-2.5278,-2.524,-2.523,-2.5291,-2.532,-2.5348,-2.5334,-2.5406,-2.5409,-2.5405,-2.5412,-2.5387,-2.5349,-2.5338,-2.5329,-2.5314,-2.5287,-2.5479,-2.5479,-2.548,-2.5333,-2.5326,-2.539,-2.5385,-2.5404,-2.542,-2.5487,-2.5522,-2.5511,-2.5487,-2.5416,-2.5408,-2.5346,-2.5327,-2.5301,-2.5278,-2.5229,0,0]},{"header":{"parameterUnit":"m.s-1","parameterCategory":1,"la1":30.2992,"la2":30.254,"lo1":-89.0895,"lo2":-89.0443,"dy":0.0025,"dx":0.0025,"nx":19,"ny":19,"refTime":"2026-05-15T21:00:00:Z","depth":0,"parameterNumber":3,"parameterNumberName":"V-component_of_WINDS"},"data":[0,0,0,3.7386,3.7388,3.7447,3.7447,3.7533,3.7534,0,0,0,0,0,0,0,0,0,0,0,3.7377,3.7378,3.7386,3.7388,3.7447,3.7447,3.7533,3.7534,0,0,0,0,0,0,0,0,0,0,0,3.7376,3.7377,3.7379,3.7388,3.7447,3.7447,3.7533,3.7484,0,0,0,0,0,0,0,0,0,0,3.7425,3.7424,3.7377,3.7379,3.7389,3.7447,3.7447,3.7482,3.7487,3.7512,0,3.7537,0,3.7537,3.7541,3.7541,0,0,0,3.7381,3.742,3.7429,3.7379,3.7389,3.7447,3.7418,3.7485,3.7491,3.7519,3.7538,3.7541,3.7539,3.7541,3.7542,3.7707,3.7708,0,0,3.7378,3.7392,3.7424,3.7433,3.7427,3.7417,3.742,3.7488,3.7509,3.7538,3.7543,3.754,3.7542,3.7543,3.7706,3.7707,0,0,0,3.7373,3.739,3.7396,3.743,3.744,3.7418,3.7423,3.7506,3.7507,3.7543,3.7541,3.7543,3.7544,3.7704,3.7706,3.7771,0,0,0,3.7371,3.7387,3.7395,3.7404,3.7439,3.7474,3.744,3.7503,3.751,3.7541,3.7543,3.7545,3.7703,3.7705,3.7767,3.78,0,0,0,3.737,3.7386,3.7398,3.7405,3.7431,3.7473,3.7478,3.7504,3.7509,3.7541,3.7545,3.7702,3.7705,3.7763,3.7793,3.7846,0,0,0,3.7373,3.7456,3.7399,3.749,3.743,3.7514,3.7477,3.7538,3.7574,3.7543,3.7703,3.7706,3.7762,3.7789,3.7842,3.7892,3.7914,0,0,3.7485,3.747,3.7522,3.7473,3.757,3.7504,3.7609,3.7629,3.7619,3.7678,3.7681,3.7769,3.7793,3.7845,3.8038,3.8056,0,0,0,3.7562,3.76,3.7622,3.7657,3.7675,3.7692,3.7694,3.7701,3.775,3.7653,3.7802,3.7816,3.7846,3.7869,3.7885,3.7908,3.7718,3.7717,3.7717,3.7739,3.7722,3.7807,3.7798,3.7832,3.7833,3.7859,3.7868,3.7842,3.7877,3.7894,3.8013,3.8041,3.8052,3.8077,3.792,3.792,3.7921,3.7921,3.7899,3.7949,3.7912,3.7981,3.7962,3.8019,3.8023,3.8002,3.8051,3.7999,3.8025,3.7968,3.8072,3.8093,3.7925,3.7925,3.7924,3.7924,3.7923,3.8012,3.8033,3.8041,3.8089,3.8127,3.8114,3.8163,3.8145,3.8128,3.8153,3.8168,3.8167,3.8162,3.8162,3.8162,3.8163,3.8163,3.8163,3.8164,3.8126,3.8132,3.8176,3.8201,3.822,3.8243,3.8245,3.8263,3.8277,3.826,3.826,3.8229,3.8086,3.805,3.817,3.8169,3.8168,3.8167,3.8167,3.8293,3.8252,3.832,3.8339,3.8366,3.8404,3.838,3.8418,3.843,3.8455,3.8418,3.8317,3.8299,3.8287,3.8257,3.8423,3.8423,3.8423,3.8423,3.8387,3.8377,3.8441,3.8473,3.8502,3.8487,3.8562,3.8563,3.8558,3.8564,3.8538,3.8496,3.8485,3.8474,3.8458,3.8429,3.8635,3.8635,3.8636,3.8488,3.8479,3.8548,3.8543,3.8562,3.8578,3.8648,3.8684,3.867,3.8644,3.8568,3.8559,3.8492,3.8472,3.8443,3.8418,3.8365,0,0]}]]